Wind_Speed
8 6 4 4 4 4 5 6 7 8 9 10 10 10 10 9 8 7 5 4 3 3 2 2 3 3 3 4 4 4 4 5 5 6 7 7 7 7 7 7 9 9 9 10 13 14 16 18 17 15 14 14 13 13 14 16 17 17 18 17 17 17 18
7 7 5 4 3 3 3 4 5 6 6 7 8 9 9 10 9 9 9 7 6 5 4 3 3 2 3 4 5 5 6 6 6 7 7 8 8 8 8 8 8 7 7 7 6 7 10 14 16 17 19 20 20 18 18 18 18 19 20 20 20 19 18
8 9 8 6 4 3 3 3 3 3 3 5 6 7 8 8 8 8 8 7 6 5 5 4 3 3 3 4 4 5 6 6 7 8 8 9 10 10 11 11 11 10 9 9 7 7 9 10 13 14 15 17 20 22 21 20 20 20 21 21 22 22 20
10 9 8 7 5 4 3 2 2 1 1 2 3 5 5 6 6 6 6 5 5 4 3 3 2 3 3 4 4 5 6 7 7 8 9 9 10 11 12 12 12 12 11 11 10 10 10 11 12 15 15 15 18 21 22 21 21 21 21 21 22 23 23
11 10 8 6 5 4 4 3 3 3 2 1 1 2 3 4 4 4 4 3 3 3 3 3 3 3 3 4 4 5 5 6 8 9 10 11 11 11 11 12 12 12 12 12 12 13 13 13 14 16 18 17 18 21 21 21 23 22 22 22 22 23 23
14 12 9 7 7 6 5 5 4 4 3 3 2 2 2 2 2 2 2 2 2 3 3 3 4 4 5 5 5 5 5 6 6 7 9 10 11 11 11 12 12 12 13 13 14 15 15 16 16 17 19 18 19 21 20 20 22 23 23 23 23 24 24
17 15 11 9 8 8 7 6 5 5 5 4 4 4 4 3 2 1 1 0 1 2 3 3 3 4 4 5 5 5 5 6 6 7 8 9 10 10 11 11 12 13 13 14 15 16 16 18 18 18 20 20 21 23 23 22 23 23 24 23 22 23 24
19 18 15 11 10 9 8 7 7 6 6 6 6 6 5 4 3 2 1 1 1 2 3 4 4 4 4 5 6 6 6 6 7 7 8 8 9 10 11 11 12 13 14 15 16 17 17 18 18 19 19 20 22 24 25 25 26 26 26 26 26 25 23
22 21 19 15 12 11 9 8 8 8 7 7 8 8 7 5 4 3 2 2 2 3 4 5 5 5 6 6 7 8 9 9 9 9 8 8 9 10 11 12 12 13 14 15 16 17 17 18 19 19 19 18 19 22 23 24 26 28 27 26 28 28 25
24 23 21 18 15 13 11 10 10 9 9 9 10 9 8 7 5 4 3 3 4 5 6 6 6 6 6 7 8 9 10 11 11 12 11 10 10 10 11 12 13 14 15 16 16 17 18 18 19 20 20 20 18 19 21 23 25 27 26 24 25 27 27
25 25 23 20 18 16 13 12 12 12 11 11 11 10 9 8 7 5 4 5 6 7 8 8 7 7 8 9 10 11 12 12 13 13 13 13 12 12 12 13 14 15 16 17 17 18 18 18 18 19 20 20 20 20 20 22 26 28 26 23 19 18 19
26 25 24 22 20 18 16 15 14 13 13 12 13 12 11 9 8 7 6 7 8 9 10 10 9 9 10 11 12 13 14 15 15 15 15 15 16 16 16 16 16 17 17 17 18 18 18 18 18 18 18 19 20 21 21 21 26 29 27 23 20 17 17
28 26 25 24 22 20 18 17 16 15 14 14 14 13 12 11 9 9 8 9 10 11 12 12 11 11 12 13 14 15 15 16 17 17 17 18 18 19 19 19 19 19 19 19 18 17 18 18 18 18 18 18 18 19 21 21 25 30 29 27 28 27 24
31 29 27 25 24 22 20 19 18 17 16 16 15 15 13 12 11 11 11 11 12 13 14 13 13 13 13 14 15 16 17 18 18 19 20 21 21 21 21 21 20 20 21 21 21 20 19 18 19 19 18 19 18 17 19 20 24 29 30 29 30 31 29
32 31 29 28 26 24 22 20 19 19 18 18 17 16 15 15 14 14 14 15 15 15 15 15 15 15 15 16 17 17 18 19 20 21 22 23 23 23 22 21 20 19 19 20 21 22 22 21 21 20 19 19 20 18 18 19 21 25 29 29 29 31 31
34 33 32 31 29 27 24 21 21 21 20 19 19 18 18 17 17 17 18 18 17 17 17 17 17 17 18 18 18 19 20 20 21 23 24 24 25 24 24 23 22 20 19 19 19 20 22 23 23 22 21 20 21 21 21 20 20 22 26 29 29 30 31
38 36 34 33 32 29 25 23 22 23 22 21 21 21 20 20 21 21 21 20 19 19 19 19 18 19 19 19 20 20 21 22 22 23 24 25 25 26 25 25 24 23 22 21 20 19 20 22 23 24 24 22 22 22 22 21 21 22 24 28 30 29 31
43 42 38 36 36 33 27 24 24 24 24 23 22 22 23 23 24 23 22 21 21 20 20 20 20 20 20 20 21 21 22 23 23 24 25 25 26 26 26 26 26 25 24 24 23 23 22 22 23 23 24 24 22 21 20 20 20 21 23 27 31 31 31
45 45 40 38 39 37 31 26 26 26 25 24 23 24 25 25 25 24 23 22 22 21 20 21 21 20 20 21 22 23 23 24 25 25 26 26 27 26 26 26 26 26 26 25 25 25 25 24 24 24 25 25 24 22 21 19 19 19 22 27 31 33 32
45 47 44 39 38 39 35 29 28 27 26 24 24 24 26 26 26 24 24 23 22 21 21 21 21 20 21 22 23 24 25 26 27 28 28 28 28 27 27 27 27 26 26 26 27 27 27 26 26 26 26 27 27 26 25 25 24 23 24 26 29 31 32
43 46 46 43 39 37 36 34 30 28 26 24 23 24 26 26 25 24 23 22 21 21 21 21 20 21 21 22 24 25 27 28 29 30 29 29 28 27 28 27 27 27 26 26 27 27 28 28 29 29 28 28 28 29 29 29 29 27 26 25 26 28 30
39 41 43 44 42 38 37 37 34 29 26 23 22 23 25 25 25 24 23 22 21 21 20 20 20 21 22 23 25 27 28 29 29 29 28 27 27 27 27 27 28 28 28 28 28 28 28 28 30 31 31 30 30 30 31 31 31 29 26 24 24 26 29
31 34 38 42 44 42 39 38 36 31 26 22 21 23 24 25 24 23 22 22 21 20 19 19 20 21 23 24 26 27 28 28 27 27 26 27 27 27 27 28 28 29 29 30 30 30 30 30 31 32 32 32 32 32 32 33 32 31 29 26 24 25 28
24 28 33 38 43 45 42 39 38 33 26 22 21 22 23 23 23 22 22 21 19 19 19 20 21 22 23 25 26 26 26 25 24 24 25 26 27 28 28 29 30 30 31 32 32 32 33 33 33 33 34 34 34 33 33 33 34 34 32 30 28 25 26
23 27 30 34 42 47 42 40 40 34 26 23 22 22 22 22 23 22 20 19 18 18 20 21 22 23 24 24 25 25 24 24 23 23 24 25 26 28 29 30 31 32 32 33 33 34 35 35 35 35 35 35 35 35 34 33 34 34 34 34 34 32 30
24 28 30 34 42 43 39 38 37 29 23 22 22 22 22 22 21 20 19 17 17 19 21 22 22 23 23 23 23 24 24 24 24 24 25 26 27 29 30 31 32 32 32 33 34 34 35 36 36 36 37 36 36 36 35 34 33 33 34 35 37 38 37
24 29 32 36 40 39 38 38 35 26 23 23 22 21 20 18 18 18 17 17 19 21 22 22 21 21 21 21 22 23 24 24 25 26 27 28 29 30 31 32 33 33 33 33 33 33 34 35 36 37 37 37 37 37 36 36 34 34 34 35 37 40 40
24 29 33 37 39 38 37 37 31 25 24 22 20 18 17 16 17 17 17 19 21 21 21 20 19 19 20 21 22 23 24 25 27 29 30 30 31 32 32 32 33 34 33 33 32 32 33 33 34 36 37 38 38 38 37 36 35 35 35 35 37 38 39
24 27 32 36 37 37 38 36 27 23 24 22 18 16 14 14 15 17 19 21 21 20 19 18 18 19 21 22 22 23 25 27 29 31 32 33 34 35 35 34 35 35 35 34 32 31 31 31 33 34 36 37 38 38 38 37 35 35 35 36 37 38 38
24 26 30 33 34 36 39 36 29 27 28 24 18 14 13 14 15 17 19 20 19 18 17 16 17 19 21 22 23 24 26 28 31 33 34 36 37 38 38 37 37 37 37 35 33 31 29 30 31 33 35 37 38 39 39 37 35 35 35 36 37 36 37
24 26 28 30 32 35 35 31 30 30 27 21 17 14 13 13 15 17 17 17 17 16 14 15 17 20 21 22 23 24 27 29 32 35 36 38 39 41 41 41 39 38 38 37 34 32 30 29 31 33 33 36 38 39 40 39 38 37 36 36 36 36 37
23 25 27 30 31 33 32 30 31 28 22 19 18 15 12 11 13 14 15 15 14 13 14 15 17 19 21 21 23 25 27 31 34 36 38 40 42 43 44 43 41 39 39 38 36 34 33 31 33 34 33 35 38 40 40 39 39 38 36 37 36 37 38
22 25 26 28 31 33 33 32 28 23 18 16 12 10 9 10 11 12 12 12 12 13 14 15 17 19 21 21 23 25 28 31 34 37 40 42 44 45 45 45 43 41 40 39 37 36 35 34 34 35 34 34 37 38 38 38 37 35 35 36 36 37 38
23 24 27 31 34 35 34 29 22 16 13 10 8 7 7 7 8 8 9 10 11 13 15 16 18 19 21 22 24 26 28 31 35 38 41 43 44 46 46 46 44 42 41 40 39 38 37 36 35 36 36 36 38 39 38 38 38 36 35 37 37 37 37
25 28 33 37 37 35 29 21 15 13 12 10 9 8 7 5 5 6 7 9 11 13 15 17 19 19 21 22 24 26 29 32 35 39 42 44 45 46 46 46 45 43 42 41 41 39 38 38 37 37 38 38 39 39 39 40 39 38 38 39 38 38 37
29 34 38 39 36 29 21 16 14 14 14 12 11 9 6 4 3 5 6 9 12 13 15 17 18 19 21 22 23 25 29 32 36 39 42 44 45 46 46 46 45 44 43 43 42 40 39 38 37 37 37 36 36 35 36 37 38 39 40 40 41 41 40
32 33 32 30 26 22 19 19 18 16 14 13 10 8 5 2 2 4 6 8 10 11 14 15 17 19 20 21 23 26 29 33 36 38 41 43 45 46 46 46 45 45 44 43 41 40 37 35 33 32 32 31 30 30 32 34 36 37 39 40 41 42 42
Wind_Direction
155 152 146 145 120 101 84 72 69 65 62 67 73 76 77 77 77 78 79 76 64 38 12 345 322 307 297 288 282 274 261 254 249 246 244 242 239 238 238 240 247 254 257 258 265 275 281 282 276 264 260 262 262 267 274 281 289 294 292 290 292 291 283
165 173 181 177 152 129 103 83 76 73 71 73 78 83 82 80 77 76 77 78 74 64 50 36 19 339 302 281 271 266 262 257 253 251 249 248 246 246 245 245 248 248 255 262 263 264 269 277 281 277 271 268 266 265 271 278 282 284 284 284 287 292 291
184 187 193 196 185 169 148 117 94 87 85 85 87 89 89 87 83 79 78 79 78 71 61 46 25 355 325 304 285 271 263 256 253 252 253 254 253 255 256 258 260 260 262 263 256 258 268 274 280 285 283 278 273 268 268 272 276 278 279 278 279 283 288
201 200 198 199 194 180 172 166 156 153 129 106 109 105 100 97 90 82 76 73 74 72 64 53 30 360 341 323 309 293 278 267 260 256 256 259 260 262 264 266 270 272 273 274 270 268 273 276 280 284 286 285 282 277 276 277 276 275 275 275 277 279 282
212 212 203 194 192 186 186 194 203 214 223 213 158 133 122 113 103 91 77 62 58 57 48 42 39 29 15 354 336 319 303 287 274 265 259 258 259 260 263 265 268 270 271 272 273 273 272 273 277 282 285 288 286 282 282 285 281 278 274 271 273 278 281
220 221 210 195 192 193 198 207 216 228 237 238 230 203 176 149 129 106 82 66 55 47 31 23 20 16 9 358 349 338 328 317 301 288 274 266 262 259 259 260 261 262 263 264 266 268 270 270 273 277 279 283 285 285 286 287 287 286 281 274 274 279 281
223 226 218 205 202 201 202 209 219 231 237 233 230 225 215 198 185 168 141 68 46 35 13 2 358 359 354 344 340 336 331 327 319 311 300 289 282 275 269 265 263 261 261 261 263 264 267 269 271 274 276 277 277 280 284 285 287 290 288 285 285 286 285
223 228 226 217 214 213 209 212 220 228 237 236 233 235 230 217 208 204 215 268 351 360 346 337 337 340 338 334 334 335 336 334 324 315 306 297 291 286 283 278 273 270 267 265 265 265 266 268 270 272 276 280 279 278 279 279 279 282 286 289 291 291 291
223 230 231 225 221 221 216 216 223 228 236 239 238 241 240 230 223 223 238 275 319 329 321 314 319 324 325 329 331 333 337 337 331 323 313 303 295 290 287 286 284 280 277 273 271 269 267 267 268 269 271 276 280 282 282 279 276 276 280 286 288 288 289
222 228 231 229 224 224 220 219 225 230 234 238 241 244 243 237 234 238 256 285 306 310 303 296 300 310 317 322 324 328 331 331 330 326 320 312 305 299 295 294 293 292 289 285 281 277 274 271 268 266 266 267 269 275 279 280 280 279 278 280 285 289 291
221 225 229 230 228 226 224 221 224 228 233 239 241 243 243 241 241 249 266 287 297 300 299 295 297 308 318 321 323 324 325 326 324 321 318 314 309 305 302 300 299 298 296 293 291 286 281 278 273 268 265 263 262 263 267 274 278 280 279 279 282 289 291
223 225 227 229 229 228 226 224 225 228 233 240 243 244 245 244 246 254 267 281 290 295 296 295 299 309 316 319 323 324 324 323 320 317 315 312 310 309 308 307 306 304 300 298 297 293 287 282 277 273 269 264 260 259 259 263 271 277 278 275 271 271 275
229 228 229 231 231 230 228 227 227 229 233 239 244 245 244 244 246 251 262 274 281 288 290 290 294 302 308 313 318 321 321 320 319 319 317 315 313 311 310 311 311 310 308 306 304 300 295 288 281 277 273 268 263 259 258 255 261 271 276 274 271 270 270
233 231 232 234 234 232 231 230 229 230 233 238 242 244 243 244 246 251 258 266 273 279 282 281 284 291 298 305 311 316 317 318 319 320 320 319 317 315 313 311 310 309 309 308 309 307 303 298 291 284 277 273 269 262 260 257 256 266 274 274 273 273 271
236 235 234 235 236 234 232 232 232 232 233 236 240 241 240 241 244 249 255 262 269 274 275 273 275 282 289 295 302 308 311 315 317 318 319 319 318 317 315 313 311 309 306 304 305 306 305 303 299 293 285 278 275 269 264 264 261 263 270 272 271 272 272
239 238 238 237 235 234 232 232 234 235 235 236 239 238 236 237 239 244 250 258 267 272 272 270 271 277 284 289 296 303 306 310 313 315 317 317 316 316 315 315 314 313 310 305 302 300 300 300 299 298 294 287 282 277 272 271 269 267 270 272 270 270 272
245 240 240 239 237 234 233 232 233 236 237 238 239 237 234 234 235 239 246 254 263 269 269 269 270 276 282 288 295 300 303 307 310 312 313 312 311 312 312 313 315 315 314 311 307 304 301 299 298 297 296 295 292 288 282 278 275 272 271 272 272 270 270
250 244 241 242 240 236 233 233 234 235 237 238 238 236 234 234 235 239 244 251 259 263 263 264 268 274 281 288 294 299 302 305 307 308 308 307 308 310 311 311 313 314 314 312 311 311 309 307 304 300 298 297 297 295 293 289 283 277 273 272 274 273 271
247 245 242 241 240 237 234 234 235 236 237 237 235 234 234 235 237 241 246 251 256 257 257 259 265 273 281 288 294 298 301 303 304 304 306 308 310 311 311 311 311 311 311 309 308 308 309 309 307 305 302 299 296 294 292 291 287 283 278 272 273 275 274
245 244 242 238 236 235 234 235 236 236 237 236 234 234 234 235 239 244 248 252 253 253 254 259 267 276 284 291 295 297 299 300 302 305 308 310 312 311 310 310 309 309 308 307 305 304 304 305 304 303 302 300 298 294 290 288 286 285 284 278 274 274 275
251 248 245 240 233 231 233 234 234 236 236 235 234 234 236 238 241 245 248 250 251 253 257 264 274 283 290 294 296 296 298 301 304 308 309 311 311 310 310 309 308 308 308 306 305 303 302 301 301 300 299 298 296 294 292 290 289 288 287 285 280 275 273
256 252 248 242 233 229 231 230 230 234 234 232 232 234 238 241 243 244 246 247 250 255 263 272 281 289 293 294 295 298 301 304 307 309 310 311 312 311 311 311 310 309 308 306 305 303 301 300 299 298 298 296 294 292 290 289 288 287 286 284 283 279 275
261 255 249 241 233 230 229 226 227 231 229 227 231 233 235 239 242 243 243 246 253 261 269 280 288 293 294 295 298 301 304 306 308 310 312 314 314 314 314 313 311 310 308 306 304 302 300 298 297 296 297 296 294 291 289 287 285 283 281 279 278 278 276
266 258 251 243 236 232 229 225 226 227 224 223 228 231 232 237 240 242 243 248 256 266 277 287 291 293 295 298 302 303 304 306 308 311 314 316 316 316 315 313 311 309 307 306 304 302 300 298 297 296 295 295 294 292 288 286 284 280 278 275 272 272 272
265 260 254 248 240 232 226 224 224 221 218 220 223 225 229 233 237 241 246 251 260 273 284 288 289 292 297 300 302 302 303 305 307 310 313 315 316 316 314 312 310 309 307 306 305 303 302 300 298 297 295 294 293 291 288 284 281 279 276 273 271 267 266
261 259 255 248 239 230 224 223 220 215 215 219 219 221 226 230 235 242 248 255 267 278 284 285 288 293 297 299 300 302 303 304 305 308 312 314 316 316 314 313 311 310 308 307 305 303 302 300 299 297 295 293 291 290 288 284 280 277 273 271 269 267 266
257 254 252 245 237 233 230 223 216 212 215 216 216 219 224 230 237 245 253 262 272 277 280 283 288 291 294 298 301 303 304 304 305 308 311 315 317 316 316 315 313 312 311 308 307 305 303 301 299 296 294 293 291 290 288 285 282 278 273 269 266 266 266
259 253 250 245 240 236 228 217 211 212 210 206 209 216 223 234 241 249 259 266 272 277 280 283 285 290 297 303 305 306 307 308 309 310 313 316 318 318 318 317 316 315 314 312 310 307 304 301 298 295 293 291 290 289 287 284 282 280 276 272 269 267 266
265 257 251 248 245 235 221 210 207 203 194 191 200 207 214 231 243 252 262 269 276 280 281 282 287 297 306 309 310 311 311 311 312 313 315 318 318 318 319 319 319 318 316 314 313 309 305 301 297 293 291 289 288 287 285 283 282 279 277 275 273 270 268
269 262 253 249 243 228 215 208 201 193 191 193 196 199 209 226 242 254 263 271 278 280 282 289 299 308 312 312 312 313 313 313 313 313 315 317 317 318 319 320 320 319 317 316 314 311 307 302 296 291 289 287 286 284 283 282 281 279 277 277 276 274 272
272 264 253 247 234 216 206 200 191 187 190 189 185 192 210 228 245 259 267 273 279 284 292 303 308 311 313 312 313 314 314 313 312 312 313 314 315 316 317 318 320 319 317 316 315 313 309 303 297 292 288 285 283 280 280 280 279 278 277 277 276 275 274
271 262 252 242 224 204 192 186 181 180 182 182 184 195 214 236 254 264 270 276 283 293 302 306 309 310 311 312 313 314 313 312 311 311 312 312 314 314 315 316 318 317 317 316 315 313 310 305 299 295 291 287 283 281 280 281 280 278 276 275 274 273 273
265 257 241 218 199 188 182 179 177 178 180 182 190 204 223 243 255 261 270 281 291 301 304 306 308 309 310 312 313 313 312 311 310 310 310 311 312 312 312 314 315 316 316 316 314 311 308 304 300 296 292 286 282 282 284 284 282 280 278 275 273 271 271
252 242 220 196 183 180 180 178 177 177 175 177 188 202 216 232 246 259 275 288 296 302 306 307 309 310 311 313 312 312 311 310 309 309 309 310 310 310 311 312 313 314 315 313 311 309 306 304 301 295 288 282 280 282 283 281 280 278 276 274 272 269 268
237 225 207 191 181 179 178 175 173 169 164 170 174 175 185 205 236 265 283 294 300 304 307 308 308 310 311 311 311 311 309 307 307 307 307 308 308 309 310 311 311 312 311 310 309 307 306 304 301 294 288 285 283 282 281 278 277 274 272 271 269 268 266
224 208 194 183 179 177 169 155 151 150 151 155 154 151 164 191 243 281 295 301 303 305 307 307 308 309 309 309 308 307 305 303 304 306 307 307 309 310 310 310 310 310 309 308 307 307 306 304 300 294 291 288 286 284 283 280 278 276 274 271 269 267 265
215 191 174 169 171 169 155 147 148 146 142 144 145 145 154 177 279 299 308 312 313 311 307 305 305 306 306 306 303 301 301 302 305 308 309 310 311 311 310 309 309 308 307 307 307 308 308 305 300 296 293 290 288 286 283 280 278 276 275 273 272 270 268
Height
1530 1531 1531 1531 1531 1531 1531 1531 1530 1530 1530 1529 1529 1529 1529 1529 1529 1530 1530 1531 1531 1532 1532 1532 1533 1533 1533 1534 1534 1535 1536 1537 1538 1538 1539 1539 1539 1540 1540 1541 1541 1542 1543 1544 1545 1545 1544 1542 1542 1543 1543 1542 1542 1542 1542 1542 1542 1542 1542 1543 1544 1544 1545
1530 1531 1531 1531 1532 1531 1532 1532 1531 1531 1531 1530 1530 1530 1530 1530 1530 1531 1531 1532 1532 1532 1532 1532 1532 1532 1533 1533 1534 1534 1535 1536 1536 1537 1538 1538 1539 1539 1539 1540 1540 1541 1542 1543 1544 1544 1543 1541 1539 1540 1540 1540 1540 1541 1541 1541 1540 1540 1540 1541 1541 1542 1542
1529 1530 1531 1531 1532 1532 1532 1532 1532 1532 1532 1531 1531 1531 1531 1531 1531 1532 1532 1532 1532 1533 1533 1533 1533 1533 1533 1533 1533 1534 1534 1535 1535 1536 1536 1537 1537 1538 1538 1538 1539 1540 1541 1541 1541 1541 1541 1540 1538 1537 1537 1537 1537 1537 1538 1539 1539 1539 1539 1539 1539 1539 1540
1528 1529 1530 1531 1531 1531 1532 1532 1532 1532 1532 1532 1532 1532 1532 1532 1532 1532 1532 1533 1533 1533 1533 1533 1533 1533 1532 1532 1533 1533 1533 1534 1534 1535 1535 1536 1536 1536 1537 1537 1537 1538 1538 1539 1539 1539 1539 1538 1537 1535 1535 1535 1534 1534 1535 1536 1536 1537 1537 1537 1537 1538 1538
1528 1529 1529 1530 1531 1531 1531 1532 1532 1532 1533 1533 1533 1532 1532 1532 1533 1533 1533 1533 1533 1533 1533 1533 1533 1533 1532 1532 1532 1532 1533 1533 1533 1534 1534 1534 1535 1535 1535 1535 1536 1536 1536 1537 1537 1537 1537 1536 1535 1534 1533 1533 1532 1531 1532 1533 1533 1534 1534 1535 1535 1536 1536
1527 1528 1528 1529 1530 1530 1531 1531 1531 1532 1532 1533 1533 1533 1533 1533 1533 1533 1533 1533 1533 1533 1533 1532 1532 1532 1532 1532 1532 1532 1532 1532 1532 1532 1532 1533 1533 1533 1533 1534 1534 1534 1534 1535 1535 1535 1535 1535 1534 1533 1532 1531 1530 1529 1530 1530 1530 1530 1531 1532 1533 1533 1534
1525 1526 1527 1528 1529 1529 1530 1530 1531 1531 1532 1532 1532 1532 1533 1533 1533 1533 1533 1533 1533 1533 1532 1532 1532 1532 1532 1532 1531 1531 1531 1531 1531 1531 1531 1531 1531 1531 1531 1531 1532 1532 1532 1532 1532 1532 1532 1532 1532 1531 1530 1530 1529 1528 1528 1528 1528 1528 1528 1529 1530 1531 1532
1524 1525 1526 1527 1528 1528 1528 1529 1530 1530 1531 1531 1532 1532 1532 1532 1533 1533 1533 1533 1533 1532 1532 1532 1532 1532 1531 1531 1531 1530 1530 1530 1530 1530 1530 1529 1529 1529 1529 1529 1529 1529 1529 1529 1529 1530 1530 1529 1529 1529 1528 1528 1527 1526 1526 1526 1526 1526 1525 1525 1526 1528 1529
1522 1523 1525 1526 1526 1527 1527 1528 1528 1529 1530 1530 1530 1531 1531 1532 1532 1532 1532 1532 1532 1532 1532 1532 1531 1531 1531 1531 1530 1530 1529 1529 1529 1529 1529 1528 1528 1528 1527 1527 1527 1527 1526 1526 1527 1527 1527 1527 1527 1527 1527 1527 1526 1524 1524 1523 1523 1523 1523 1523 1523 1524 1526
1520 1522 1523 1524 1525 1526 1526 1527 1527 1528 1528 1529 1529 1529 1530 1530 1531 1531 1531 1531 1531 1531 1531 1531 1531 1531 1531 1530 1530 1529 1529 1528 1528 1527 1527 1527 1527 1527 1526 1526 1525 1525 1524 1524 1524 1524 1524 1524 1524 1524 1524 1524 1524 1523 1522 1521 1520 1520 1521 1521 1521 1521 1522
1518 1520 1521 1523 1524 1525 1525 1525 1526 1527 1527 1528 1528 1528 1529 1529 1529 1530 1530 1530 1530 1530 1530 1530 1530 1530 1530 1529 1529 1528 1528 1527 1527 1526 1526 1525 1525 1525 1525 1524 1524 1523 1523 1522 1522 1521 1521 1521 1521 1522 1522 1522 1522 1522 1521 1519 1517 1517 1518 1519 1519 1519 1520
1517 1518 1520 1521 1522 1523 1524 1524 1525 1525 1526 1527 1527 1527 1527 1528 1528 1528 1528 1528 1528 1528 1528 1528 1528 1528 1528 1527 1527 1527 1526 1526 1526 1525 1525 1524 1523 1523 1522 1522 1521 1521 1520 1520 1520 1519 1519 1519 1519 1519 1519 1519 1519 1519 1519 1518 1515 1513 1514 1515 1516 1517 1517
1515 1517 1518 1519 1520 1521 1522 1522 1523 1524 1525 1525 1526 1526 1526 1527 1527 1527 1527 1527 1527 1527 1527 1527 1527 1527 1526 1526 1525 1525 1524 1524 1524 1523 1523 1523 1522 1521 1520 1520 1519 1518 1518 1517 1517 1517 1517 1516 1516 1516 1516 1516 1516 1516 1516 1515 1513 1510 1511 1512 1512 1512 1513
1513 1515 1516 1516 1518 1519 1520 1521 1521 1522 1523 1524 1524 1525 1525 1525 1526 1526 1526 1526 1526 1525 1525 1525 1525 1525 1525 1524 1524 1523 1523 1522 1522 1521 1521 1521 1520 1520 1519 1518 1518 1517 1516 1515 1515 1514 1514 1514 1514 1514 1514 1513 1513 1513 1512 1512 1510 1508 1507 1508 1508 1508 1509
1511 1512 1513 1514 1515 1517 1518 1519 1519 1520 1520 1521 1522 1523 1524 1524 1524 1525 1524 1524 1524 1524 1524 1524 1524 1524 1523 1523 1522 1522 1521 1521 1520 1519 1519 1518 1518 1517 1517 1516 1516 1516 1515 1514 1514 1513 1512 1512 1511 1511 1511 1510 1510 1510 1510 1509 1508 1505 1504 1504 1505 1505 1505
1508 1510 1511 1512 1513 1514 1515 1517 1517 1518 1519 1519 1520 1520 1521 1522 1523 1523 1523 1523 1523 1523 1523 1523 1522 1522 1522 1521 1521 1520 1519 1519 1518 1517 1517 1516 1515 1515 1514 1513 1513 1513 1513 1513 1512 1512 1511 1510 1509 1508 1508 1507 1507 1506 1506 1505 1505 1503 1501 1500 1501 1501 1501
1506 1507 1508 1509 1510 1512 1513 1514 1515 1516 1517 1517 1518 1518 1519 1519 1520 1520 1521 1521 1522 1522 1521 1521 1521 1520 1519 1519 1518 1518 1517 1516 1516 1515 1515 1514 1513 1512 1511 1511 1510 1510 1510 1509 1510 1510 1509 1508 1507 1506 1505 1504 1504 1503 1503 1502 1501 1500 1498 1496 1496 1497 1497
1501 1503 1505 1506 1508 1510 1511 1512 1513 1514 1515 1515 1516 1516 1517 1517 1517 1518 1518 1519 1519 1519 1519 1519 1519 1518 1517 1516 1516 1515 1514 1514 1514 1513 1512 1511 1511 1510 1509 1508 1507 1507 1506 1506 1506 1506 1506 1506 1505 1504 1503 1502 1501 1500 1499 1499 1498 1497 1495 1493 1492 1493 1493
1495 1497 1500 1503 1505 1507 1509 1510 1511 1512 1513 1513 1514 1514 1515 1515 1515 1515 1516 1517 1517 1516 1517 1517 1516 1516 1515 1514 1513 1513 1512 1512 1511 1510 1509 1508 1508 1507 1506 1505 1505 1505 1504 1503 1503 1502 1502 1502 1502 1501 1500 1500 1499 1498 1497 1496 1495 1494 1492 1491 1489 1489 1489
1489 1492 1495 1498 1501 1503 1506 1507 1508 1509 1510 1511 1512 1513 1513 1513 1513 1514 1514 1514 1514 1514 1514 1514 1513 1513 1512 1512 1511 1511 1510 1509 1508 1507 1506 1505 1504 1504 1503 1503 1502 1502 1501 1501 1500 1500 1499 1499 1498 1498 1497 1497 1496 1495 1494 1493 1492 1491 1489 1488 1487 1486 1485
1486 1488 1491 1494 1497 1499 1502 1504 1505 1506 1508 1509 1510 1511 1512 1512 1512 1512 1512 1512 1512 1512 1511 1511 1510 1510 1510 1510 1509 1508 1507 1506 1505 1504 1503 1502 1501 1501 1500 1500 1499 1499 1498 1498 1497 1497 1496 1495 1494 1494 1494 1493 1492 1491 1490 1489 1488 1487 1486 1485 1483 1483 1482
1483 1485 1488 1491 1494 1495 1496 1499 1501 1503 1504 1506 1507 1509 1510 1511 1511 1511 1510 1510 1510 1510 1510 1509 1508 1508 1508 1507 1507 1506 1504 1503 1502 1501 1500 1499 1498 1498 1497 1497 1496 1495 1495 1494 1493 1493 1492 1492 1490 1489 1489 1489 1488 1487 1486 1485 1485 1484 1483 1482 1481 1480 1478
1480 1482 1484 1487 1490 1491 1492 1494 1496 1498 1500 1502 1504 1505 1507 1509 1509 1509 1508 1508 1509 1509 1508 1507 1506 1506 1506 1505 1504 1503 1501 1500 1499 1498 1497 1496 1495 1495 1494 1493 1493 1492 1491 1490 1489 1489 1488 1487 1487 1486 1485 1484 1484 1483 1482 1481 1481 1480 1480 1479 1478 1477 1475
1477 1479 1481 1484 1486 1486 1487 1489 1491 1494 1497 1498 1500 1502 1504 1506 1507 1507 1506 1506 1507 1507 1507 1506 1505 1504 1503 1502 1501 1500 1499 1498 1497 1496 1494 1493 1492 1491 1491 1490 1489 1488 1487 1486 1485 1484 1483 1482 1482 1481 1481 1480 1480 1479 1478 1477 1476 1476 1476 1475 1474 1474 1473
1475 1476 1478 1481 1482 1481 1482 1485 1486 1489 1493 1495 1497 1499 1501 1503 1505 1505 1505 1505 1505 1505 1505 1504 1503 1502 1501 1499 1498 1497 1496 1495 1494 1493 1492 1491 1490 1488 1487 1486 1485 1484 1483 1482 1481 1479 1478 1477 1476 1476 1475 1475 1474 1474 1474 1473 1472 1471 1471 1470 1469 1469 1469
1473 1474 1476 1478 1478 1479 1483 1485 1485 1488 1491 1493 1495 1498 1500 1501 1503 1503 1504 1503 1503 1503 1503 1502 1501 1499 1498 1497 1496 1495 1494 1493 1492 1491 1490 1488 1487 1485 1484 1482 1481 1480 1479 1478 1476 1475 1473 1472 1471 1470 1469 1469 1468 1468 1468 1468 1467 1467 1467 1465 1464 1462 1463
1471 1472 1474 1475 1476 1478 1482 1483 1484 1487 1490 1492 1494 1496 1498 1500 1501 1502 1502 1502 1502 1501 1501 1500 1498 1497 1496 1495 1494 1492 1491 1490 1489 1488 1487 1485 1484 1482 1480 1479 1477 1475 1475 1474 1473 1471 1469 1467 1466 1464 1463 1462 1462 1462 1462 1462 1462 1462 1461 1461 1459 1457 1458
1468 1469 1471 1471 1472 1475 1478 1479 1481 1484 1487 1490 1492 1494 1496 1497 1499 1500 1500 1501 1501 1500 1499 1497 1496 1495 1494 1493 1491 1490 1488 1487 1486 1484 1483 1482 1480 1478 1477 1475 1473 1471 1470 1469 1468 1467 1465 1463 1461 1459 1457 1456 1455 1455 1455 1455 1456 1456 1455 1455 1454 1453 1453
1464 1465 1466 1467 1469 1471 1473 1475 1479 1481 1484 1487 1489 1490 1492 1495 1496 1497 1499 1499 1499 1498 1497 1495 1494 1493 1491 1490 1488 1487 1485 1484 1482 1481 1479 1478 1476 1474 1473 1471 1469 1467 1465 1464 1463 1462 1461 1458 1456 1453 1452 1450 1450 1449 1448 1449 1450 1450 1449 1449 1448 1448 1448
1460 1461 1462 1464 1466 1468 1469 1471 1475 1478 1480 1481 1483 1486 1489 1491 1493 1494 1495 1496 1496 1496 1495 1493 1492 1490 1489 1487 1485 1484 1482 1480 1478 1476 1475 1473 1471 1469 1468 1466 1464 1462 1460 1459 1458 1457 1456 1454 1451 1448 1447 1445 1444 1442 1441 1443 1443 1443 1443 1443 1442 1442 1442
1456 1457 1459 1460 1462 1465 1467 1469 1472 1475 1476 1477 1480 1484 1487 1489 1490 1491 1492 1492 1493 1493 1492 1491 1490 1488 1487 1485 1483 1480 1478 1476 1474 1472 1470 1468 1466 1464 1462 1461 1460 1457 1455 1454 1453 1452 1451 1449 1446 1444 1442 1440 1438 1436 1436 1437 1437 1437 1438 1437 1437 1437 1436
1453 1455 1456 1457 1459 1462 1466 1469 1471 1473 1474 1476 1478 1481 1484 1486 1487 1489 1489 1489 1489 1489 1489 1489 1488 1486 1485 1483 1480 1478 1475 1473 1470 1468 1465 1463 1460 1458 1457 1455 1454 1453 1451 1449 1447 1446 1445 1444 1441 1439 1437 1435 1432 1430 1431 1432 1431 1431 1431 1431 1431 1431 1430
1450 1452 1453 1454 1457 1461 1464 1468 1470 1472 1473 1475 1477 1478 1480 1482 1484 1486 1486 1487 1486 1487 1487 1486 1486 1484 1482 1480 1478 1475 1473 1470 1467 1464 1461 1458 1455 1453 1451 1450 1449 1447 1446 1444 1442 1440 1439 1438 1436 1433 1432 1431 1427 1426 1427 1427 1426 1426 1425 1424 1425 1425 1424
1448 1450 1452 1453 1456 1459 1462 1466 1468 1470 1472 1474 1475 1477 1478 1480 1482 1483 1484 1484 1485 1485 1484 1484 1483 1481 1479 1477 1475 1472 1470 1467 1463 1459 1456 1453 1451 1448 1446 1445 1443 1442 1440 1438 1436 1435 1433 1432 1431 1428 1426 1425 1423 1422 1423 1421 1421 1421 1420 1418 1419 1419 1418
1447 1449 1451 1452 1454 1457 1461 1464 1466 1468 1470 1472 1474 1475 1477 1478 1480 1482 1482 1483 1483 1483 1482 1481 1480 1478 1476 1473 1472 1469 1466 1463 1460 1456 1451 1448 1446 1444 1442 1440 1437 1436 1435 1433 1431 1429 1427 1426 1425 1422 1420 1419 1417 1417 1416 1415 1415 1415 1414 1413 1412 1412 1412
1447 1449 1450 1450 1452 1455 1459 1463 1465 1467 1468 1470 1472 1474 1475 1477 1479 1480 1481 1481 1481 1481 1480 1479 1476 1474 1472 1470 1468 1466 1462 1459 1456 1453 1448 1445 1442 1439 1437 1434 1432 1430 1429 1427 1425 1423 1421 1420 1418 1415 1414 1412 1411 1410 1410 1409 1409 1408 1407 1406 1406 1405 1405
1446 1449 1450 1450 1452 1455 1458 1462 1465 1466 1468 1470 1471 1472 1474 1476 1478 1479 1479 1479 1479 1478 1477 1475 1473 1470 1468 1466 1464 1461 1458 1455 1452 1449 1445 1441 1438 1434 1431 1429 1427 1424 1422 1420 1419 1417 1415 1413 1411 1409 1408 1407 1406 1405 1404 1403 1403 1402 1401 1400 1399 1397 1398